Weather at Mikonos Airport

Public forecast

Using degrees Celsius for public forecast. Weather courtesy of forecast.io.

Current aviation weather report (METAR) for Mikonos Airport

Retrieved 2021/06/19 03:20 UTC (27 minutes ago):

LGMK 190320Z VRB02KT CAVOK 22/17 Q1012

Aviation forecast (TAF) for Mikonos Airport

Forecast is more than 12 hours old.

Retrieved 2012/09/27 00:18 UTC (9 years ago):

TAF TAF LGMK 272300Z 2800/2909 36016KT 9999 FEW020